Mosby, MO

5:58 AM CDT on May 25, 2017 (GMT -0500)
Clay County Regional

Weather History for KGPH - February, 2013

Change the Weather History Date:

Thursday, February 7, 2013

  Actual Average (KMKC) Record (KMKC)
Temperature  
Mean Temperature 42 °F -  
Max Temperature 51 °F 41 °F 72 °F (2009)
Min Temperature 33 °F 24 °F 5 °F (2003)
Degree Days  
Heating Degree Days 23    
Moisture  
Dew Point 38 °F    
Average Humidity 87    
Maximum Humidity 100    
Minimum Humidity 58    
Precipitation  
Precipitation 0.00 in - - ()
Sea Level Pressure  
Sea Level Pressure 29.98 in    
Wind  
Wind Speed 7 mph (NNW)    
Max Wind Speed 20 mph    
Max Gust Speed 26 mph    
Visibility 8 miles    
Events Rain , Thunderstorm    
Averages and records for this station are not official NWS values.
T = Trace of Precipitation, MM = Missing Value Source: NWS Daily Summary

Daily Weather History Graph

Daily Weather History Graph

Search for Another Location

Airport or City:

Trip Planner

Search our weather history database for the weather conditions in past years. The results will help you decide how hot, cold, wet, or windy it might be!

Date:

Astronomy

Feb. 07, 2013 Rise Set
Actual Time 7:18 AM CST 5:45 PM CST
Civil Twilight 6:50 AM CST 6:13 PM CST
Nautical Twilight 6:18 AM CST 6:44 PM CST
Astronomical Twilight 5:47 AM CST 7:16 PM CST
Moon 4:57 AM CST (2/7) 3:11 PM CST (2/7)
Length of Visible Light 11h 22m
Length of Day
10h 27m
Waning Crescent, 9% of the Moon is Illuminated
Feb 7
Waning Crescent
Feb 10
New
Feb 17
First Quarter
Feb 25
Full
Mar 4
Last Quarter

Hourly Weather History & Observations

Time (CST) Temp. Windchill Dew Point Humidity Pressure Visibility Wind Dir Wind Speed Gust Speed Precip Events Conditions
12:15 AM 50.0 °F - 37.4 °F 62% 29.92 in 10.0 mi Calm Calm - N/A   Overcast
12:35 AM 51.8 °F - 37.4 °F 58% 29.93 in 5.0 mi South 6.9 mph - N/A Thunderstorm Unknown
12:55 AM 50.0 °F - 39.2 °F 66% 29.92 in 10.0 mi SSE 6.9 mph - N/A Rain , Thunderstorm Light Thunderstorms and Rain
1:15 AM 50.0 °F - 41.0 °F 71% 29.92 in 10.0 mi SSE 8.1 mph - N/A   Overcast
1:35 AM 48.2 °F - 41.0 °F 76% 29.90 in 10.0 mi SSE 6.9 mph - N/A Thunderstorm Thunderstorm
1:55 AM 46.4 °F 44.3 °F 41.0 °F 81% 29.90 in 10.0 mi SSE 4.6 mph - N/A Thunderstorm Scattered Clouds
2:15 AM 46.4 °F 45.2 °F 41.0 °F 81% 29.89 in 10.0 mi ESE 3.5 mph - N/A Thunderstorm Mostly Cloudy
2:35 AM 46.4 °F 44.3 °F 39.2 °F 76% 29.89 in 10.0 mi SSE 4.6 mph - N/A Thunderstorm Scattered Clouds
2:55 AM 46.4 °F 45.2 °F 39.2 °F 76% 29.89 in 10.0 mi SE 3.5 mph - N/A   Scattered Clouds
3:15 AM 44.6 °F - 39.2 °F 81% 29.89 in 10.0 mi Calm Calm - N/A   Mostly Cloudy
3:35 AM 44.6 °F - 39.2 °F 81% 29.90 in 10.0 mi Calm Calm - N/A Thunderstorm Overcast
3:55 AM 44.6 °F 43.1 °F 39.2 °F 81% 29.90 in 10.0 mi ESE 3.5 mph - N/A   Overcast
4:15 AM 44.6 °F 43.1 °F 39.2 °F 81% 29.89 in 10.0 mi ESE 3.5 mph - N/A Rain Light Rain
4:35 AM 44.6 °F 42.2 °F 41.0 °F 87% 29.88 in 7.0 mi ESE 4.6 mph - N/A Rain Light Rain
4:55 AM 42.8 °F 40.1 °F 41.0 °F 93% 29.88 in 7.0 mi ESE 4.6 mph - N/A Rain Rain
5:15 AM 44.6 °F 42.2 °F 41.0 °F 87% 29.88 in 10.0 mi ESE 4.6 mph - N/A Rain Light Rain
5:55 AM 42.8 °F - 41.0 °F 93% 29.89 in 1.8 mi Calm Calm - N/A Rain Heavy Rain
6:15 AM 42.8 °F 41.1 °F 41.0 °F 93% 29.88 in 4.0 mi ESE 3.5 mph - N/A Rain Rain
6:35 AM 42.8 °F - 42.8 °F 100% 29.89 in 1.8 mi Calm Calm - N/A Rain Rain
6:55 AM 42.8 °F - 42.8 °F 100% 29.88 in 2.5 mi Calm Calm - N/A Rain Rain
7:15 AM 42.8 °F 41.1 °F 42.8 °F 100% 29.88 in 3.0 mi ESE 3.5 mph - N/A Rain Rain
7:35 AM 42.8 °F - 42.8 °F 100% 29.88 in 2.5 mi Calm Calm - N/A Rain Light Rain
7:55 AM 42.8 °F - 42.8 °F 100% 29.88 in 2.5 mi Calm Calm - N/A Rain Light Rain
8:15 AM 42.8 °F - 42.8 °F 100% 29.89 in 2.5 mi Calm Calm - N/A Rain Light Rain
8:35 AM 42.8 °F - 42.8 °F 100% 29.90 in 1.5 mi Calm Calm - N/A   Heavy Drizzle
8:55 AM 42.8 °F - 42.8 °F 100% 29.90 in 1.0 mi Calm Calm - N/A Rain Rain
9:15 AM 42.8 °F - 42.8 °F 100% 29.91 in 1.2 mi Calm Calm - N/A Rain Rain
9:35 AM 42.8 °F 41.1 °F 42.8 °F 100% 29.91 in 1.8 mi SW 3.5 mph - N/A Rain Rain
9:55 AM 44.6 °F - 44.6 °F 100% 29.91 in 2.5 mi Calm Calm - N/A Rain Light Rain
10:35 AM 46.4 °F 42.4 °F 44.6 °F 93% 29.92 in 5.0 mi WNW 8.1 mph - N/A Rain Light Rain
10:55 AM 44.6 °F 38.4 °F 44.6 °F 100% 29.92 in 5.0 mi NW 12.7 mph - N/A   Overcast
11:15 AM 44.6 °F 38.4 °F 42.8 °F 93% 29.93 in 5.0 mi WNW 12.7 mph 19.6 mph N/A Rain Light Rain
11:35 AM 44.6 °F 39.2 °F 42.8 °F 93% 29.93 in 5.0 mi NW 10.4 mph - N/A Rain Rain
11:55 AM 44.6 °F 39.7 °F 41.0 °F 87% 29.93 in 7.0 mi NW 9.2 mph 13.8 mph N/A   Light Drizzle
12:15 PM 44.6 °F 39.2 °F 41.0 °F 87% 29.93 in 10.0 mi NNW 10.4 mph - N/A   Overcast
12:35 PM 44.6 °F 39.2 °F 42.8 °F 93% 29.94 in 10.0 mi NW 10.4 mph - N/A   Overcast
12:55 PM 44.6 °F 39.2 °F 42.8 °F 93% 29.95 in 10.0 mi NW 10.4 mph 19.6 mph N/A   Overcast
1:15 PM 46.4 °F 41.1 °F 42.8 °F 87% 29.95 in 10.0 mi NW 11.5 mph 18.4 mph N/A   Overcast
1:35 PM 46.4 °F 40.4 °F 42.8 °F 87% 29.95 in 10.0 mi NNW 13.8 mph 18.4 mph N/A   Overcast
1:55 PM 46.4 °F 41.1 °F 42.8 °F 87% 29.95 in 10.0 mi NNW 11.5 mph 17.3 mph N/A   Overcast
2:15 PM 46.4 °F 40.7 °F 41.0 °F 81% 29.96 in 10.0 mi NNW 12.7 mph - N/A   Overcast
2:35 PM 46.4 °F 40.7 °F 41.0 °F 81% 29.96 in 10.0 mi NNW 12.7 mph 16.1 mph N/A   Overcast
3:15 PM 44.6 °F 38.1 °F 41.0 °F 87% 29.97 in 10.0 mi NNW 13.8 mph 20.7 mph N/A   Overcast
3:35 PM 44.6 °F 37.8 °F 39.2 °F 81% 29.98 in 10.0 mi NNW 15.0 mph - N/A   Overcast
3:55 PM 44.6 °F 38.1 °F 37.4 °F 76% 29.99 in 10.0 mi NW 13.8 mph 19.6 mph N/A   Overcast
4:15 PM 42.8 °F 35.8 °F 37.4 °F 81% 30.00 in 10.0 mi NNW 13.8 mph 20.7 mph N/A   Overcast
4:35 PM 41.0 °F 33.9 °F 35.6 °F 81% 30.02 in 10.0 mi NW 12.7 mph - N/A   Overcast
4:55 PM 41.0 °F 33.1 °F 35.6 °F 81% 30.03 in 7.0 mi NNW 15.0 mph 24.2 mph N/A   Unknown
5:15 PM 41.0 °F 32.2 °F 33.8 °F 76% 30.04 in 10.0 mi NNW 18.4 mph 24.2 mph N/A   Unknown
5:35 PM 39.2 °F 31.6 °F 33.8 °F 81% 30.06 in 10.0 mi NNW 12.7 mph 17.3 mph N/A   Overcast
5:55 PM 39.2 °F 31.6 °F 33.8 °F 81% 30.07 in 10.0 mi NW 12.7 mph 19.6 mph N/A   Overcast
6:15 PM 37.4 °F 27.5 °F 33.8 °F 87% 30.07 in 7.0 mi NNW 18.4 mph 21.9 mph N/A   Overcast
6:35 PM 37.4 °F 28.5 °F 32.0 °F 81% 30.09 in 7.0 mi NNW 15.0 mph 23.0 mph N/A   Overcast
6:55 PM 37.4 °F 27.8 °F 32.0 °F 81% 30.10 in 7.0 mi North 17.3 mph - N/A   Overcast
7:35 PM 35.6 °F 25.2 °F 32.0 °F 87% 30.12 in 7.0 mi NNW 18.4 mph 26.5 mph N/A   Overcast
7:55 PM 35.6 °F 24.8 °F 32.0 °F 87% 30.12 in 10.0 mi NNW 19.6 mph 24.2 mph N/A   Overcast
8:15 PM 35.6 °F 26.2 °F 32.0 °F 87% 30.13 in 10.0 mi NNW 15.0 mph 20.7 mph N/A   Overcast
8:35 PM 35.6 °F 25.9 °F 32.0 °F 87% 30.14 in 10.0 mi NNW 16.1 mph 21.9 mph N/A   Overcast
8:55 PM 35.6 °F 25.9 °F 32.0 °F 87% 30.14 in 10.0 mi NNW 16.1 mph 21.9 mph N/A   Overcast
9:15 PM 35.6 °F 25.2 °F 32.0 °F 87% 30.15 in 10.0 mi NNW 18.4 mph 23.0 mph N/A   Overcast
9:35 PM 33.8 °F 24.8 °F 32.0 °F 93% 30.17 in 10.0 mi NNW 12.7 mph 20.7 mph N/A   Overcast
9:55 PM 33.8 °F 23.9 °F 30.2 °F 87% 30.17 in 10.0 mi NNW 15.0 mph 20.7 mph N/A   Overcast
10:15 PM 33.8 °F 23.5 °F 30.2 °F 87% 30.18 in 10.0 mi NNW 16.1 mph - N/A   Overcast
10:55 PM 33.8 °F 27.0 °F 30.2 °F 87% 30.19 in 10.0 mi NNW 8.1 mph - N/A   Overcast
11:15 PM 33.8 °F 26.4 °F 30.2 °F 87% 30.19 in 10.0 mi NNW 9.2 mph - N/A   Overcast
11:35 PM 33.8 °F 27.7 °F 30.2 °F 87% 30.20 in 10.0 mi NNW 6.9 mph - N/A   Overcast
11:55 PM 33.8 °F 27.0 °F 30.2 °F 87% 30.21 in 10.0 mi NNW 8.1 mph - N/A   Overcast